TimeMST,TemperatureF,Dew PointF,Humidity,Sea Level PressureIn,VisibilityMPH,Wind Direction,Wind SpeedMPH,Gust SpeedMPH,PrecipitationIn,Events,Conditions,WindDirDegrees,DateUTC
12:35 AM,27.9,22.5,80,30.27,10.0,Calm,Calm,-,N/A,,Clear,0,2013-03-03 07:35:00
12:55 AM,29.3,22.8,77,30.27,10.0,Calm,Calm,-,N/A,,Clear,0,2013-03-03 07:55:00
1:15 AM,26.8,22.6,84,30.27,10.0,Calm,Calm,-,N/A,,Clear,0,2013-03-03 08:15:00
1:35 AM,27.5,21.7,79,30.26,10.0,Calm,Calm,-,N/A,,Clear,0,2013-03-03 08:35:00
1:55 AM,24.6,21.7,89,30.25,10.0,Calm,Calm,-,N/A,,Clear,0,2013-03-03 08:55:00
2:15 AM,24.6,21.4,87,30.23,10.0,Calm,Calm,-,N/A,,Clear,0,2013-03-03 09:15:00
2:35 AM,25.9,20.8,81,30.22,10.0,Calm,Calm,-,N/A,,Clear,0,2013-03-03 09:35:00
2:55 AM,23.7,21.2,90,30.21,10.0,Calm,Calm,-,N/A,,Clear,0,2013-03-03 09:55:00
3:15 AM,25.5,22.8,89,30.20,10.0,Calm,Calm,-,N/A,,Clear,0,2013-03-03 10:15:00
3:35 AM,25.2,22.6,90,30.19,10.0,Calm,Calm,-,N/A,,Clear,0,2013-03-03 10:35:00
3:55 AM,24.1,22.6,94,30.18,10.0,Calm,Calm,-,N/A,,Clear,0,2013-03-03 10:55:00
4:15 AM,24.3,22.8,94,30.18,10.0,Calm,Calm,-,N/A,,Clear,0,2013-03-03 11:15:00
4:35 AM,23.0,20.7,91,30.17,10.0,Calm,Calm,-,N/A,,Clear,0,2013-03-03 11:35:00
4:55 AM,21.7,19.9,93,30.17,10.0,Calm,Calm,-,N/A,,Clear,0,2013-03-03 11:55:00
5:15 AM,21.7,20.5,95,30.16,10.0,Calm,Calm,-,N/A,,Clear,0,2013-03-03 12:15:00
5:35 AM,21.9,21.0,96,30.17,10.0,Calm,Calm,-,N/A,,Clear,0,2013-03-03 12:35:00
5:55 AM,19.6,18.3,95,30.16,10.0,Calm,Calm,-,N/A,,Clear,0,2013-03-03 12:55:00
6:15 AM,20.3,19.0,95,30.16,10.0,Calm,Calm,-,N/A,,Clear,0,2013-03-03 13:15:00
6:35 AM,23.4,22.3,96,30.14,10.0,Calm,Calm,-,N/A,,Clear,0,2013-03-03 13:35:00
6:55 AM,22.5,21.4,96,30.14,10.0,Calm,Calm,-,N/A,,Clear,0,2013-03-03 13:55:00
7:15 AM,22.5,20.7,93,30.14,10.0,Calm,Calm,-,N/A,,Clear,0,2013-03-03 14:15:00
7:35 AM,25.9,23.9,92,30.13,10.0,Calm,Calm,-,N/A,,Clear,0,2013-03-03 14:35:00
7:55 AM,24.1,21.6,90,30.13,10.0,Calm,Calm,-,N/A,,Clear,0,2013-03-03 14:55:00
8:15 AM,27.3,22.6,83,30.13,10.0,Calm,Calm,-,N/A,,Clear,0,2013-03-03 15:15:00
8:35 AM,31.6,23.0,70,30.12,10.0,Calm,Calm,-,N/A,,Clear,0,2013-03-03 15:35:00
8:55 AM,33.6,22.6,64,30.12,10.0,Calm,Calm,-,N/A,,Clear,0,2013-03-03 15:55:00
9:15 AM,36.1,23.0,59,30.10,10.0,Calm,Calm,-,N/A,,Scattered Clouds,0,2013-03-03 16:15:00
9:35 AM,39.7,23.4,52,30.10,10.0,Calm,Calm,-,N/A,,Scattered Clouds,0,2013-03-03 16:35:00
9:55 AM,39.7,23.7,53,30.11,10.0,WSW,4.6,-,N/A,,Scattered Clouds,240,2013-03-03 16:55:00
10:15 AM,41.2,22.5,47,30.10,10.0,Calm,Calm,-,N/A,,Scattered Clouds,0,2013-03-03 17:15:00
10:35 AM,45.5,19.2,35,30.07,10.0,SSW,3.5,-,N/A,,Clear,200,2013-03-03 17:35:00
10:55 AM,44.6,20.3,38,30.07,10.0,SSE,4.6,-,N/A,,Scattered Clouds,150,2013-03-03 17:55:00
11:15 AM,45.7,19.9,36,30.07,10.0,South,10.4,-,N/A,,Mostly Cloudy,190,2013-03-03 18:15:00
11:35 AM,46.4,19.4,34,30.07,10.0,Calm,Calm,-,N/A,,Mostly Cloudy,0,2013-03-03 18:35:00
11:55 AM,47.1,19.6,34,30.07,10.0,South,8.1,-,N/A,,Mostly Cloudy,190,2013-03-03 18:55:00
12:15 PM,48.0,19.6,32,30.05,10.0,SSW,12.7,17.3,N/A,,Overcast,200,2013-03-03 19:15:00
12:35 PM,47.3,19.2,33,30.04,10.0,SW,8.1,-,N/A,,Overcast,230,2013-03-03 19:35:00
12:55 PM,47.1,18.7,32,30.02,10.0,SSW,10.4,-,N/A,,Overcast,210,2013-03-03 19:55:00
1:15 PM,46.6,19.0,33,30.02,10.0,SW,11.5,-,N/A,,Overcast,230,2013-03-03 20:15:00
1:35 PM,45.5,20.1,36,30.01,10.0,SW,9.2,-,N/A,,Overcast,230,2013-03-03 20:35:00
1:55 PM,45.9,20.1,36,30.01,10.0,SW,9.2,16.1,N/A,,Overcast,230,2013-03-03 20:55:00
2:35 PM,45.7,19.2,35,29.99,10.0,SW,12.7,17.3,N/A,,Overcast,220,2013-03-03 21:35:00
2:55 PM,46.8,18.3,32,29.99,10.0,SW,10.4,-,N/A,,Overcast,220,2013-03-03 21:55:00
3:15 PM,45.9,19.4,35,29.99,10.0,South,13.8,-,N/A,,Overcast,190,2013-03-03 22:15:00
3:35 PM,45.5,21.2,38,29.99,10.0,South,10.4,-,N/A,,Overcast,190,2013-03-03 22:35:00
3:55 PM,45.5,19.4,35,29.99,10.0,SSW,10.4,18.4,N/A,,Overcast,210,2013-03-03 22:55:00
4:15 PM,45.1,19.6,36,29.99,10.0,SSW,10.4,16.1,N/A,,Overcast,210,2013-03-03 23:15:00
4:35 PM,46.4,18.0,32,29.97,10.0,SSW,9.2,-,N/A,,Overcast,210,2013-03-03 23:35:00
4:55 PM,45.7,18.1,33,29.98,10.0,SW,13.8,18.4,N/A,,Overcast,230,2013-03-03 23:55:00
5:35 PM,43.5,19.0,38,29.99,10.0,SW,5.8,-,N/A,,Overcast,220,2013-03-04 00:35:00
5:55 PM,43.2,19.2,38,29.99,10.0,SSW,5.8,-,N/A,,Overcast,200,2013-03-04 00:55:00
6:15 PM,42.8,20.8,42,29.99,10.0,SSW,8.1,-,N/A,,Overcast,200,2013-03-04 01:15:00
6:35 PM,42.4,20.1,41,29.97,10.0,SSW,5.8,-,N/A,,Overcast,210,2013-03-04 01:35:00
6:55 PM,41.5,22.6,47,29.99,10.0,South,5.8,-,N/A,,Overcast,190,2013-03-04 01:55:00
7:15 PM,41.0,22.3,47,29.97,10.0,South,3.5,-,N/A,,Overcast,180,2013-03-04 02:15:00
7:35 PM,39.7,23.4,52,29.97,10.0,Calm,Calm,-,N/A,,Overcast,0,2013-03-04 02:35:00
7:55 PM,36.1,26.6,68,29.97,10.0,Calm,Calm,-,N/A,,Overcast,0,2013-03-04 02:55:00
8:15 PM,36.3,27.0,69,29.96,10.0,Calm,Calm,-,N/A,,Overcast,0,2013-03-04 03:15:00
8:35 PM,38.5,23.9,56,29.95,10.0,NE,5.8,-,N/A,,Overcast,40,2013-03-04 03:35:00
8:55 PM,38.1,24.1,57,29.95,10.0,NNE,4.6,-,N/A,,Overcast,30,2013-03-04 03:55:00
9:15 PM,38.5,24.1,56,29.95,10.0,Calm,Calm,-,N/A,,Overcast,0,2013-03-04 04:15:00
9:35 PM,36.9,25.7,64,29.95,10.0,Calm,Calm,-,N/A,,Overcast,0,2013-03-04 04:35:00
9:55 PM,35.6,26.4,69,29.95,10.0,Calm,Calm,-,N/A,,Overcast,0,2013-03-04 04:55:00
10:15 PM,36.1,25.9,66,29.94,10.0,Calm,Calm,-,N/A,,Overcast,0,2013-03-04 05:15:00
10:35 PM,34.7,27.3,74,29.94,10.0,Calm,Calm,-,N/A,,Overcast,0,2013-03-04 05:35:00
10:55 PM,36.3,26.6,68,29.94,10.0,Calm,Calm,-,N/A,,Overcast,0,2013-03-04 05:55:00
11:15 PM,35.2,25.7,68,29.93,10.0,Calm,Calm,-,N/A,,Overcast,0,2013-03-04 06:15:00
11:35 PM,35.1,26.4,71,29.93,10.0,Calm,Calm,-,N/A,,Overcast,0,2013-03-04 06:35:00
11:55 PM,35.6,26.6,70,29.92,10.0,Calm,Calm,-,N/A,,Overcast,0,2013-03-04 06:55:00